contact:dominique.lefevre@mio.osupytheas.fr, maurice.libes@osupytheas.fr, didier.mallarino@osupytheas.fr
Project:EMSO http://www.emso-fr.org/EMSO-France
Depth: 2436.0 m
Title:EMSO Ligure Ouest : Data MII capteur CSTAR
DateTime,Latitude,Longitude,Instrument_Serial,Reference_Counts,Signal_Counts,Corrected_Signal_raw_counts,Calculated_Beam_c_inverse_meters,Internal_thermistor_counts
DateTime,Latitude,Longitude,Instrument_Serial,Reference_Counts,Signal_Counts,Corrected_Signal_raw_counts,Calculated_Beam_c_inverse_meters,Internal_thermistor_counts
2021-12-17T00:00:40,42.805,6.029,CST-1368DR,5045,6492,13759,0.506,551
2021-12-17T00:03:41,42.805,6.029,CST-1368DR,5045,6492,13760,0.506,551
2021-12-17T00:06:43,42.805,6.029,CST-1368DR,5045,6493,13761,0.506,551
2021-12-17T00:09:44,42.805,6.029,CST-1368DR,5045,6492,13760,0.506,551
2021-12-17T00:12:46,42.805,6.029,CST-1368DR,5045,6491,13757,0.507,551
2021-12-17T00:15:48,42.805,6.029,CST-1368DR,5045,6492,13758,0.507,551
2021-12-17T00:18:49,42.805,6.029,CST-1368DR,5045,6491,13757,0.507,551
2021-12-17T00:21:51,42.805,6.029,CST-1368DR,5045,6490,13755,0.508,551
2021-12-17T00:24:52,42.805,6.029,CST-1368DR,5045,6492,13759,0.506,551
2021-12-17T00:27:54,42.805,6.029,CST-1368DR,5045,6492,13759,0.506,551
2021-12-17T00:30:56,42.805,6.029,CST-1368DR,5045,6492,13760,0.506,551
2021-12-17T00:33:57,42.805,6.029,CST-1368DR,5045,6493,13760,0.506,551
2021-12-17T00:36:59,42.805,6.029,CST-1368DR,5045,6492,13759,0.506,551
2021-12-17T00:40:00,42.805,6.029,CST-1368DR,5045,6492,13760,0.506,551
2021-12-17T00:43:02,42.805,6.029,CST-1368DR,5045,6492,13759,0.506,551
2021-12-17T00:46:03,42.805,6.029,CST-1368DR,5045,6492,13760,0.506,551
2021-12-17T00:49:05,42.805,6.029,CST-1368DR,5045,6492,13759,0.506,551
2021-12-17T00:52:07,42.805,6.029,CST-1368DR,5045,6491,13757,0.507,551
2021-12-17T00:55:08,42.805,6.029,CST-1368DR,5045,6492,13760,0.506,551
2021-12-17T00:58:10,42.805,6.029,CST-1368DR,5045,6492,13759,0.506,551
2021-12-17T01:01:11,42.805,6.029,CST-1368DR,5044,6492,13762,0.506,551
2021-12-17T01:04:13,42.805,6.029,CST-1368DR,5044,6492,13761,0.506,551
2021-12-17T01:07:14,42.805,6.029,CST-1368DR,5044,6492,13761,0.506,551
2021-12-17T01:10:16,42.805,6.029,CST-1368DR,5044,6492,13761,0.506,551
2021-12-17T01:13:18,42.805,6.029,CST-1368DR,5044,6492,13761,0.506,551
2021-12-17T01:16:19,42.805,6.029,CST-1368DR,5044,6491,13760,0.506,551
2021-12-17T01:19:21,42.805,6.029,CST-1368DR,5045,6492,13759,0.506,551
2021-12-17T01:22:22,42.805,6.029,CST-1368DR,5044,6491,13760,0.506,551
2021-12-17T01:25:24,42.805,6.029,CST-1368DR,5044,6492,13762,0.506,551
2021-12-17T01:28:26,42.805,6.029,CST-1368DR,5044,6489,13756,0.507,551
2021-12-17T01:31:27,42.805,6.029,CST-1368DR,5044,6491,13760,0.506,551
2021-12-17T01:34:29,42.805,6.029,CST-1368DR,5044,6491,13760,0.506,551
2021-12-17T01:37:30,42.805,6.029,CST-1368DR,5044,6491,13760,0.506,551
2021-12-17T01:40:32,42.805,6.029,CST-1368DR,5044,6491,13760,0.506,551
2021-12-17T01:43:33,42.805,6.029,CST-1368DR,5044,6491,13760,0.506,551
2021-12-17T01:46:35,42.805,6.029,CST-1368DR,5044,6491,13759,0.506,551
2021-12-17T01:49:37,42.805,6.029,CST-1368DR,5044,6491,13760,0.506,551
2021-12-17T01:52:38,42.805,6.029,CST-1368DR,5044,6491,13760,0.506,551
2021-12-17T01:55:40,42.805,6.029,CST-1368DR,5044,6491,13759,0.506,551
2021-12-17T01:58:41,42.805,6.029,CST-1368DR,5044,6491,13758,0.507,551
2021-12-17T02:01:43,42.805,6.029,CST-1368DR,5044,6490,13757,0.507,551
2021-12-17T02:04:45,42.805,6.029,CST-1368DR,5044,6490,13758,0.507,551
2021-12-17T02:07:46,42.805,6.029,CST-1368DR,5044,6490,13758,0.507,551
2021-12-17T02:10:48,42.805,6.029,CST-1368DR,5044,6491,13760,0.506,551
2021-12-17T02:13:49,42.805,6.029,CST-1368DR,5044,6491,13758,0.507,551
2021-12-17T02:16:51,42.805,6.029,CST-1368DR,5044,6491,13760,0.506,551
2021-12-17T02:19:52,42.805,6.029,CST-1368DR,5044,6491,13758,0.507,551
2021-12-17T02:22:54,42.805,6.029,CST-1368DR,5044,6491,13759,0.506,551
2021-12-17T02:25:56,42.805,6.029,CST-1368DR,5044,6490,13757,0.507,551
2021-12-17T02:28:57,42.805,6.029,CST-1368DR,5044,6491,13759,0.506,551
2021-12-17T02:31:59,42.805,6.029,CST-1368DR,5044,6490,13757,0.507,551
2021-12-17T02:35:00,42.805,6.029,CST-1368DR,5044,6490,13758,0.507,551
2021-12-17T02:38:02,42.805,6.029,CST-1368DR,5044,6491,13759,0.506,551
2021-12-17T02:41:03,42.805,6.029,CST-1368DR,5044,6490,13757,0.507,551
2021-12-17T02:44:05,42.805,6.029,CST-1368DR,5044,6492,13761,0.506,551
2021-12-17T02:47:07,42.805,6.029,CST-1368DR,5044,6492,13762,0.506,551
2021-12-17T02:50:08,42.805,6.029,CST-1368DR,5044,6492,13762,0.506,551
2021-12-17T02:53:10,42.805,6.029,CST-1368DR,5044,6492,13761,0.506,551
2021-12-17T02:56:11,42.805,6.029,CST-1368DR,5044,6492,13761,0.506,551
2021-12-17T02:59:13,42.805,6.029,CST-1368DR,5044,6491,13760,0.506,551
2021-12-17T03:02:15,42.805,6.029,CST-1368DR,5044,6491,13760,0.506,551
2021-12-17T03:05:16,42.805,6.029,CST-1368DR,5044,6492,13761,0.506,551
2021-12-17T03:08:18,42.805,6.029,CST-1368DR,5044,6492,13761,0.506,551
2021-12-17T03:11:19,42.805,6.029,CST-1368DR,5044,6492,13761,0.506,551
2021-12-17T03:14:21,42.805,6.029,CST-1368DR,5044,6491,13760,0.506,551
2021-12-17T03:17:22,42.805,6.029,CST-1368DR,5044,6491,13760,0.506,551
2021-12-17T03:20:24,42.805,6.029,CST-1368DR,5044,6491,13760,0.506,551
2021-12-17T03:23:26,42.805,6.029,CST-1368DR,5044,6492,13761,0.506,551
2021-12-17T03:26:27,42.805,6.029,CST-1368DR,5044,6491,13760,0.506,551
2021-12-17T03:29:29,42.805,6.029,CST-1368DR,5044,6492,13761,0.506,551
2021-12-17T03:32:30,42.805,6.029,CST-1368DR,5044,6483,13743,0.511,551
2021-12-17T03:35:32,42.805,6.029,CST-1368DR,5044,6442,13655,0.537,551
2021-12-17T03:38:34,42.805,6.029,CST-1368DR,5043,6410,13589,0.556,551
2021-12-17T03:41:35,42.805,6.029,CST-1368DR,5044,6450,13672,0.532,551
2021-12-17T03:44:37,42.805,6.029,CST-1368DR,5044,6491,13759,0.506,551
2021-12-17T03:47:38,42.805,6.029,CST-1368DR,5044,6488,13753,0.508,551
2021-12-17T03:50:40,42.805,6.029,CST-1368DR,5043,6447,13669,0.533,551
2021-12-17T03:53:41,42.805,6.029,CST-1368DR,5043,6444,13661,0.535,551
2021-12-17T03:56:43,42.805,6.029,CST-1368DR,5043,6460,13696,0.525,551
2021-12-17T03:59:45,42.805,6.029,CST-1368DR,5043,6454,13684,0.528,551
2021-12-17T04:02:46,42.805,6.029,CST-1368DR,5043,6448,13670,0.532,551
2021-12-17T04:05:48,42.805,6.029,CST-1368DR,5043,6458,13692,0.526,551
2021-12-17T04:08:49,42.805,6.029,CST-1368DR,5043,6437,13647,0.539,551
2021-12-17T04:11:51,42.805,6.029,CST-1368DR,5043,6451,13676,0.531,551
2021-12-17T04:14:52,42.805,6.029,CST-1368DR,5043,6439,13652,0.538,551
2021-12-17T04:17:54,42.805,6.029,CST-1368DR,5043,6445,13665,0.534,551
2021-12-17T04:20:56,42.805,6.029,CST-1368DR,5043,6447,13669,0.533,551
2021-12-17T04:23:57,42.805,6.029,CST-1368DR,5043,6442,13658,0.536,551
2021-12-17T04:26:59,42.805,6.029,CST-1368DR,5043,6435,13643,0.540,551
2021-12-17T04:30:00,42.805,6.029,CST-1368DR,5043,6433,13640,0.541,551
2021-12-17T04:33:02,42.805,6.029,CST-1368DR,5043,6448,13670,0.532,551
2021-12-17T04:36:04,42.805,6.029,CST-1368DR,5043,6427,13627,0.545,551
2021-12-17T04:39:05,42.805,6.029,CST-1368DR,5043,6419,13610,0.550,551
2021-12-17T04:42:07,42.805,6.029,CST-1368DR,5043,6431,13634,0.543,551
2021-12-17T04:45:08,42.805,6.029,CST-1368DR,5043,6457,13690,0.527,551
2021-12-17T04:48:10,42.805,6.029,CST-1368DR,5043,6416,13602,0.552,551
2021-12-17T04:51:11,42.805,6.029,CST-1368DR,5043,6421,13613,0.549,551
2021-12-17T04:54:13,42.805,6.029,CST-1368DR,5043,6418,13607,0.551,551
2021-12-17T04:57:15,42.805,6.029,CST-1368DR,5043,6413,13597,0.554,551
2021-12-17T05:00:16,42.805,6.029,CST-1368DR,5043,6418,13607,0.551,551
2021-12-17T05:03:18,42.805,6.029,CST-1368DR,5043,6419,13609,0.550,551
2021-12-17T05:06:19,42.805,6.029,CST-1368DR,5043,6420,13612,0.549,551
2021-12-17T05:09:21,42.805,6.029,CST-1368DR,5043,6419,13610,0.550,551
2021-12-17T05:12:23,42.805,6.029,CST-1368DR,5043,6414,13599,0.553,551
2021-12-17T05:15:24,42.805,6.029,CST-1368DR,5043,6418,13606,0.551,551
2021-12-17T05:18:26,42.805,6.029,CST-1368DR,5043,6427,13626,0.545,551
2021-12-17T05:21:27,42.805,6.029,CST-1368DR,5043,6423,13618,0.548,551
2021-12-17T05:24:29,42.805,6.029,CST-1368DR,5043,6420,13612,0.549,551
2021-12-17T05:27:30,42.805,6.029,CST-1368DR,5043,6426,13623,0.546,551
2021-12-17T05:30:32,42.805,6.029,CST-1368DR,5043,6417,13605,0.551,551
2021-12-17T05:33:34,42.805,6.029,CST-1368DR,5043,6416,13602,0.552,551
2021-12-17T05:36:35,42.805,6.029,CST-1368DR,5043,6415,13601,0.553,551
2021-12-17T05:39:37,42.805,6.029,CST-1368DR,5043,6464,13704,0.522,551
2021-12-17T05:42:38,42.805,6.029,CST-1368DR,5043,6422,13615,0.548,551
2021-12-17T05:45:40,42.805,6.029,CST-1368DR,5043,6420,13612,0.549,551
2021-12-17T05:48:42,42.805,6.029,CST-1368DR,5043,6419,13609,0.550,551
2021-12-17T05:51:43,42.805,6.029,CST-1368DR,5042,6419,13612,0.549,551
2021-12-17T05:54:45,42.805,6.029,CST-1368DR,5043,6416,13603,0.552,551
2021-12-17T05:57:46,42.805,6.029,CST-1368DR,5043,6431,13634,0.543,551
2021-12-17T06:00:48,42.805,6.029,CST-1368DR,5043,6442,13657,0.536,551
2021-12-17T06:03:49,42.805,6.029,CST-1368DR,5042,6413,13599,0.553,551
2021-12-17T06:06:51,42.805,6.029,CST-1368DR,5043,6421,13613,0.549,551
2021-12-17T06:09:53,42.805,6.029,CST-1368DR,5043,6435,13643,0.540,551
2021-12-17T06:12:54,42.805,6.029,CST-1368DR,5042,6414,13600,0.553,551
2021-12-17T06:15:56,42.805,6.029,CST-1368DR,5042,6413,13598,0.553,551
2021-12-17T06:18:57,42.805,6.029,CST-1368DR,5043,6416,13603,0.552,551
2021-12-17T06:21:59,42.805,6.029,CST-1368DR,5042,6419,13612,0.549,551
2021-12-17T06:25:01,42.805,6.029,CST-1368DR,5042,6413,13599,0.553,551
2021-12-17T06:28:02,42.805,6.029,CST-1368DR,5042,6412,13596,0.554,551
2021-12-17T06:31:04,42.805,6.029,CST-1368DR,5042,6413,13600,0.553,551
2021-12-17T06:34:05,42.805,6.029,CST-1368DR,5042,6414,13600,0.553,551
2021-12-17T06:37:07,42.805,6.029,CST-1368DR,5042,6412,13597,0.554,551
2021-12-17T06:40:08,42.805,6.029,CST-1368DR,5042,6417,13608,0.551,551
2021-12-17T06:43:10,42.805,6.029,CST-1368DR,5042,6417,13607,0.551,551
2021-12-17T06:46:12,42.805,6.029,CST-1368DR,5042,6416,13605,0.551,551
2021-12-17T06:49:13,42.805,6.029,CST-1368DR,5042,6418,13609,0.550,551
2021-12-17T06:52:15,42.805,6.029,CST-1368DR,5042,6415,13603,0.552,551
2021-12-17T06:55:16,42.805,6.029,CST-1368DR,5042,6415,13604,0.552,551
2021-12-17T06:58:18,42.805,6.029,CST-1368DR,5042,6417,13607,0.551,551
2021-12-17T07:01:19,42.805,6.029,CST-1368DR,5042,6413,13599,0.553,551
2021-12-17T07:04:21,42.805,6.029,CST-1368DR,5042,6413,13600,0.553,551
2021-12-17T07:07:23,42.805,6.029,CST-1368DR,5042,6416,13605,0.551,551
2021-12-17T07:10:24,42.805,6.029,CST-1368DR,5042,6414,13602,0.552,551
2021-12-17T07:13:26,42.805,6.029,CST-1368DR,5042,6415,13603,0.552,551
2021-12-17T07:16:27,42.805,6.029,CST-1368DR,5042,6416,13605,0.551,551
2021-12-17T07:19:29,42.805,6.029,CST-1368DR,5042,6411,13595,0.554,551
2021-12-17T07:22:31,42.805,6.029,CST-1368DR,5042,6415,13604,0.552,551
2021-12-17T07:25:32,42.805,6.029,CST-1368DR,5042,6418,13610,0.550,551
2021-12-17T07:28:34,42.805,6.029,CST-1368DR,5042,6417,13607,0.551,551
2021-12-17T07:31:35,42.805,6.029,CST-1368DR,5042,6413,13600,0.553,551
2021-12-17T07:34:37,42.805,6.029,CST-1368DR,5042,6413,13599,0.553,551
2021-12-17T07:37:38,42.805,6.029,CST-1368DR,5042,6413,13599,0.553,551
2021-12-17T07:40:40,42.805,6.029,CST-1368DR,5042,6418,13610,0.550,551
2021-12-17T07:43:42,42.805,6.029,CST-1368DR,5042,6418,13609,0.550,551
2021-12-17T07:46:43,42.805,6.029,CST-1368DR,5042,6414,13601,0.553,551
2021-12-17T07:49:45,42.805,6.029,CST-1368DR,5042,6415,13604,0.552,551
2021-12-17T07:52:46,42.805,6.029,CST-1368DR,5042,6427,13628,0.545,551
2021-12-17T07:55:48,42.805,6.029,CST-1368DR,5042,6416,13606,0.551,551
2021-12-17T07:58:50,42.805,6.029,CST-1368DR,5042,6410,13593,0.555,551
2021-12-17T08:01:51,42.805,6.029,CST-1368DR,5042,6412,13597,0.554,551
2021-12-17T08:04:53,42.805,6.029,CST-1368DR,5042,6411,13595,0.554,551
2021-12-17T08:07:54,42.805,6.029,CST-1368DR,5042,6412,13597,0.554,551
2021-12-17T08:10:56,42.805,6.029,CST-1368DR,5042,6410,13592,0.555,551
2021-12-17T08:13:57,42.805,6.029,CST-1368DR,5042,6416,13605,0.551,551
2021-12-17T08:16:59,42.805,6.029,CST-1368DR,5042,6408,13589,0.556,551
2021-12-17T08:20:01,42.805,6.029,CST-1368DR,5042,6416,13605,0.551,551
2021-12-17T08:23:02,42.805,6.029,CST-1368DR,5042,6412,13597,0.554,551
2021-12-17T08:26:04,42.805,6.029,CST-1368DR,5042,6408,13589,0.556,551
2021-12-17T08:29:05,42.805,6.029,CST-1368DR,5042,6410,13592,0.555,551
2021-12-17T08:32:07,42.805,6.029,CST-1368DR,5042,6421,13615,0.548,551
2021-12-17T08:35:09,42.805,6.029,CST-1368DR,5042,6427,13630,0.544,551
2021-12-17T08:38:10,42.805,6.029,CST-1368DR,5042,6422,13618,0.548,551
2021-12-17T08:41:12,42.805,6.029,CST-1368DR,5042,6409,13590,0.556,551
2021-12-17T08:44:13,42.805,6.029,CST-1368DR,5042,6409,13590,0.556,551
2021-12-17T08:47:15,42.805,6.029,CST-1368DR,5042,6413,13598,0.553,551
2021-12-17T08:50:16,42.805,6.029,CST-1368DR,5042,6420,13615,0.548,551
2021-12-17T08:53:18,42.805,6.029,CST-1368DR,5042,6407,13587,0.557,551
2021-12-17T08:56:20,42.805,6.029,CST-1368DR,5042,6410,13592,0.555,551
2021-12-17T08:59:21,42.805,6.029,CST-1368DR,5042,6408,13588,0.556,551
2021-12-17T09:02:23,42.805,6.029,CST-1368DR,5042,6407,13587,0.557,551
2021-12-17T09:05:24,42.805,6.029,CST-1368DR,5042,6455,13689,0.527,551
2021-12-17T09:08:26,42.805,6.029,CST-1368DR,5042,6416,13606,0.551,551
2021-12-17T09:11:27,42.805,6.029,CST-1368DR,5042,6412,13598,0.553,551
2021-12-17T09:14:29,42.805,6.029,CST-1368DR,5042,6409,13591,0.556,551
2021-12-17T09:17:31,42.805,6.029,CST-1368DR,5042,6414,13601,0.553,551
2021-12-17T09:20:32,42.805,6.029,CST-1368DR,5042,6417,13607,0.551,551
2021-12-17T09:23:34,42.805,6.029,CST-1368DR,5042,6467,13713,0.520,551
2021-12-17T09:26:35,42.805,6.029,CST-1368DR,5042,6416,13605,0.551,551
2021-12-17T09:29:37,42.805,6.029,CST-1368DR,5042,6418,13609,0.550,551
2021-12-17T09:32:39,42.805,6.029,CST-1368DR,5042,6419,13613,0.549,551
2021-12-17T09:35:40,42.805,6.029,CST-1368DR,5042,6410,13593,0.555,551
2021-12-17T09:38:42,42.805,6.029,CST-1368DR,5042,6412,13596,0.554,551
2021-12-17T09:41:43,42.805,6.029,CST-1368DR,5042,6414,13601,0.553,551
2021-12-17T09:44:45,42.805,6.029,CST-1368DR,5042,6425,13624,0.546,551
2021-12-17T09:47:46,42.805,6.029,CST-1368DR,5042,6438,13653,0.537,551
2021-12-17T09:50:48,42.805,6.029,CST-1368DR,5042,6444,13666,0.534,551
2021-12-17T09:53:50,42.805,6.029,CST-1368DR,5042,6422,13619,0.547,551
2021-12-17T09:56:51,42.805,6.029,CST-1368DR,5042,6442,13660,0.535,551
2021-12-17T09:59:53,42.805,6.029,CST-1368DR,5042,6424,13623,0.546,551
2021-12-17T10:02:54,42.805,6.029,CST-1368DR,5042,6444,13666,0.534,551
2021-12-17T10:05:56,42.805,6.029,CST-1368DR,5042,6438,13651,0.538,551
2021-12-17T10:08:58,42.805,6.029,CST-1368DR,5042,6422,13618,0.548,551
2021-12-17T10:11:59,42.805,6.029,CST-1368DR,5042,6416,13605,0.551,551
2021-12-17T10:15:01,42.805,6.029,CST-1368DR,5042,6452,13682,0.529,551
2021-12-17T10:18:02,42.805,6.029,CST-1368DR,5042,6411,13596,0.554,551
2021-12-17T10:21:04,42.805,6.029,CST-1368DR,5042,6454,13687,0.527,551
2021-12-17T10:24:05,42.805,6.029,CST-1368DR,5042,6454,13687,0.527,551
2021-12-17T10:27:07,42.805,6.029,CST-1368DR,5042,6418,13610,0.550,551
2021-12-17T10:30:09,42.805,6.029,CST-1368DR,5042,6424,13622,0.546,551
2021-12-17T10:33:10,42.805,6.029,CST-1368DR,5042,6450,13677,0.530,551
2021-12-17T10:36:12,42.805,6.029,CST-1368DR,5042,6451,13679,0.530,551
2021-12-17T10:39:13,42.805,6.029,CST-1368DR,5042,6459,13697,0.524,551
2021-12-17T10:42:15,42.805,6.029,CST-1368DR,5042,6454,13685,0.528,551
2021-12-17T10:45:16,42.805,6.029,CST-1368DR,5042,6450,13677,0.530,551
2021-12-17T10:48:18,42.805,6.029,CST-1368DR,5042,6438,13651,0.538,551
2021-12-17T10:51:20,42.805,6.029,CST-1368DR,5042,6436,13648,0.539,551
2021-12-17T10:54:21,42.805,6.029,CST-1368DR,5042,6469,13718,0.518,551
2021-12-17T10:57:23,42.805,6.029,CST-1368DR,5042,6453,13683,0.529,551
2021-12-17T11:00:24,42.805,6.029,CST-1368DR,5042,6445,13668,0.533,551
2021-12-17T11:03:26,42.805,6.029,CST-1368DR,5042,6449,13675,0.531,551
2021-12-17T11:06:28,42.805,6.029,CST-1368DR,5042,6429,13634,0.543,551
2021-12-17T11:09:29,42.805,6.029,CST-1368DR,5042,6451,13679,0.530,551
2021-12-17T11:12:31,42.805,6.029,CST-1368DR,5042,6462,13702,0.523,551
2021-12-17T11:15:32,42.805,6.029,CST-1368DR,5042,6431,13636,0.542,551
2021-12-17T11:18:34,42.805,6.029,CST-1368DR,5042,6456,13691,0.526,551
2021-12-17T11:21:35,42.805,6.029,CST-1368DR,5041,6416,13607,0.551,551
2021-12-17T11:24:37,42.805,6.029,CST-1368DR,5042,6441,13658,0.536,551
2021-12-17T11:27:39,42.805,6.029,CST-1368DR,5042,6437,13650,0.538,551
2021-12-17T11:30:40,42.805,6.029,CST-1368DR,5042,6453,13684,0.528,551
2021-12-17T11:33:42,42.805,6.029,CST-1368DR,5042,6460,13698,0.524,551
2021-12-17T11:36:43,42.805,6.029,CST-1368DR,5042,6450,13678,0.530,551
2021-12-17T11:39:45,42.805,6.029,CST-1368DR,5042,6441,13659,0.536,551
2021-12-17T11:42:47,42.805,6.029,CST-1368DR,5042,6442,13660,0.535,551
2021-12-17T11:45:48,42.805,6.029,CST-1368DR,5042,6437,13650,0.538,551
2021-12-17T11:48:50,42.805,6.029,CST-1368DR,5042,6430,13636,0.542,551
2021-12-17T11:51:51,42.805,6.029,CST-1368DR,5042,6455,13688,0.527,551
2021-12-17T11:54:53,42.805,6.029,CST-1368DR,5042,6438,13651,0.538,551
2021-12-17T11:57:54,42.805,6.029,CST-1368DR,5042,6438,13652,0.538,551
2021-12-17T12:00:56,42.805,6.029,CST-1368DR,5042,6454,13685,0.528,551
2021-12-17T12:03:58,42.805,6.029,CST-1368DR,5042,6446,13670,0.532,551
2021-12-17T12:06:59,42.805,6.029,CST-1368DR,5041,6432,13642,0.541,551
2021-12-17T12:10:01,42.805,6.029,CST-1368DR,5042,6453,13683,0.529,551
2021-12-17T12:13:02,42.805,6.029,CST-1368DR,5042,6472,13723,0.517,551
2021-12-17T12:16:04,42.805,6.029,CST-1368DR,5041,6433,13645,0.540,551
2021-12-17T12:19:05,42.805,6.029,CST-1368DR,5041,6438,13655,0.537,551
2021-12-17T12:22:07,42.805,6.029,CST-1368DR,5041,6442,13663,0.534,551
2021-12-17T12:25:09,42.805,6.029,CST-1368DR,5042,6454,13686,0.528,551
2021-12-17T12:28:10,42.805,6.029,CST-1368DR,5041,6444,13667,0.533,551
2021-12-17T12:31:12,42.805,6.029,CST-1368DR,5041,6419,13615,0.548,551
2021-12-17T12:34:13,42.805,6.029,CST-1368DR,5041,6413,13602,0.552,551
2021-12-17T12:37:15,42.805,6.029,CST-1368DR,5041,6417,13610,0.550,551
2021-12-17T12:40:17,42.805,6.029,CST-1368DR,5041,6452,13685,0.528,551
2021-12-17T12:43:18,42.805,6.029,CST-1368DR,5042,6472,13723,0.517,551
2021-12-17T12:46:20,42.805,6.029,CST-1368DR,5041,6429,13635,0.543,551
2021-12-17T12:49:21,42.805,6.029,CST-1368DR,5041,6436,13651,0.538,551
2021-12-17T12:52:23,42.805,6.029,CST-1368DR,5041,6420,13617,0.548,551
2021-12-17T12:55:24,42.805,6.029,CST-1368DR,5041,6440,13659,0.536,551
2021-12-17T12:58:26,42.805,6.029,CST-1368DR,5041,6422,13622,0.546,551
2021-12-17T13:01:28,42.805,6.029,CST-1368DR,5041,6424,13626,0.545,551
2021-12-17T13:04:29,42.805,6.029,CST-1368DR,5041,6418,13613,0.549,551
2021-12-17T13:07:31,42.805,6.029,CST-1368DR,5041,6425,13627,0.545,551
2021-12-17T13:10:32,42.805,6.029,CST-1368DR,5042,6475,13730,0.515,551
2021-12-17T13:13:34,42.805,6.029,CST-1368DR,5041,6439,13657,0.536,551
2021-12-17T13:16:36,42.805,6.029,CST-1368DR,5041,6434,13646,0.539,551
2021-12-17T13:19:37,42.805,6.029,CST-1368DR,5041,6446,13672,0.532,551
2021-12-17T13:22:39,42.805,6.029,CST-1368DR,5041,6464,13709,0.521,551
2021-12-17T13:25:40,42.805,6.029,CST-1368DR,5041,6464,13710,0.521,551
2021-12-17T13:28:42,42.805,6.029,CST-1368DR,5041,6439,13658,0.536,551
2021-12-17T13:31:43,42.805,6.029,CST-1368DR,5042,6478,13737,0.513,551
2021-12-17T13:34:45,42.805,6.029,CST-1368DR,5041,6457,13694,0.525,551
2021-12-17T13:37:47,42.805,6.029,CST-1368DR,5041,6458,13697,0.524,551
2021-12-17T13:40:48,42.805,6.029,CST-1368DR,5041,6453,13686,0.528,551
2021-12-17T13:43:50,42.805,6.029,CST-1368DR,5041,6464,13711,0.520,551
2021-12-17T13:46:51,42.805,6.029,CST-1368DR,5041,6468,13718,0.518,551
2021-12-17T13:49:53,42.805,6.029,CST-1368DR,5041,6449,13679,0.530,551
2021-12-17T13:52:55,42.805,6.029,CST-1368DR,5041,6439,13657,0.536,551
2021-12-17T13:55:56,42.805,6.029,CST-1368DR,5041,6464,13710,0.521,551
2021-12-17T13:58:58,42.805,6.029,CST-1368DR,5041,6475,13733,0.514,551
2021-12-17T14:01:59,42.805,6.029,CST-1368DR,5041,6464,13709,0.521,551
2021-12-17T14:05:01,42.805,6.029,CST-1368DR,5041,6463,13708,0.521,551
2021-12-17T14:08:02,42.805,6.029,CST-1368DR,5041,6459,13698,0.524,551
2021-12-17T14:11:04,42.805,6.029,CST-1368DR,5041,6475,13734,0.514,551
2021-12-17T14:14:06,42.805,6.029,CST-1368DR,5041,6442,13663,0.534,551
2021-12-17T14:17:07,42.805,6.029,CST-1368DR,5041,6461,13703,0.523,551
2021-12-17T14:20:09,42.805,6.029,CST-1368DR,5041,6444,13667,0.533,551
2021-12-17T14:23:10,42.805,6.029,CST-1368DR,5041,6468,13717,0.519,551
2021-12-17T14:26:12,42.805,6.029,CST-1368DR,5041,6474,13731,0.515,551
2021-12-17T14:29:13,42.805,6.029,CST-1368DR,5041,6470,13722,0.517,551
2021-12-17T14:32:15,42.805,6.029,CST-1368DR,5041,6432,13641,0.541,551
2021-12-17T14:35:17,42.805,6.029,CST-1368DR,5041,6467,13715,0.519,551
2021-12-17T14:38:18,42.805,6.029,CST-1368DR,5041,6449,13677,0.530,551
2021-12-17T14:41:20,42.805,6.029,CST-1368DR,5041,6458,13697,0.524,551
2021-12-17T14:44:21,42.805,6.029,CST-1368DR,5041,6436,13651,0.538,551
2021-12-17T14:47:23,42.805,6.029,CST-1368DR,5041,6445,13670,0.532,551
2021-12-17T14:50:25,42.805,6.029,CST-1368DR,5041,6466,13714,0.520,551
2021-12-17T14:53:26,42.805,6.029,CST-1368DR,5041,6472,13726,0.516,551
2021-12-17T14:56:28,42.805,6.029,CST-1368DR,5041,6450,13681,0.529,551
2021-12-17T14:59:29,42.805,6.029,CST-1368DR,5041,6475,13733,0.514,551
2021-12-17T15:02:31,42.805,6.029,CST-1368DR,5041,6463,13708,0.521,551
2021-12-17T15:05:32,42.805,6.029,CST-1368DR,5041,6462,13705,0.522,551
2021-12-17T15:08:34,42.805,6.029,CST-1368DR,5041,6471,13725,0.516,551
2021-12-17T15:11:36,42.805,6.029,CST-1368DR,5041,6451,13682,0.529,551
2021-12-17T15:14:37,42.805,6.029,CST-1368DR,5041,6432,13642,0.541,551
2021-12-17T15:17:39,42.805,6.029,CST-1368DR,5041,6464,13710,0.521,551
2021-12-17T15:20:40,42.805,6.029,CST-1368DR,5041,6477,13738,0.513,551
2021-12-17T15:23:42,42.805,6.029,CST-1368DR,5041,6455,13691,0.526,551
2021-12-17T15:26:44,42.805,6.029,CST-1368DR,5041,6477,13738,0.513,551
2021-12-17T15:29:45,42.805,6.029,CST-1368DR,5041,6455,13690,0.527,551
2021-12-17T15:32:47,42.805,6.029,CST-1368DR,5041,6465,13713,0.520,551
2021-12-17T15:35:48,42.805,6.029,CST-1368DR,5041,6445,13669,0.533,551
2021-12-17T15:38:50,42.805,6.029,CST-1368DR,5041,6472,13726,0.516,551
2021-12-17T15:41:51,42.805,6.029,CST-1368DR,5041,6474,13732,0.514,551
2021-12-17T15:44:53,42.805,6.029,CST-1368DR,5041,6459,13699,0.524,551
2021-12-17T15:47:55,42.805,6.029,CST-1368DR,5041,6472,13726,0.516,550
2021-12-17T15:50:56,42.805,6.029,CST-1368DR,5041,6433,13644,0.540,551
2021-12-17T15:53:58,42.805,6.029,CST-1368DR,5041,6455,13691,0.526,551
2021-12-17T15:56:59,42.805,6.029,CST-1368DR,5041,6467,13717,0.519,551
2021-12-17T16:00:01,42.805,6.029,CST-1368DR,5041,6455,13691,0.526,551
2021-12-17T16:03:03,42.805,6.029,CST-1368DR,5041,6469,13720,0.518,551
2021-12-17T16:06:04,42.805,6.029,CST-1368DR,5041,6445,13669,0.533,551
2021-12-17T16:09:06,42.805,6.029,CST-1368DR,5041,6469,13720,0.518,551
2021-12-17T16:12:07,42.805,6.029,CST-1368DR,5041,6452,13685,0.528,551
2021-12-17T16:15:09,42.805,6.029,CST-1368DR,5041,6466,13714,0.520,551
2021-12-17T16:18:10,42.805,6.029,CST-1368DR,5041,6469,13720,0.518,551
2021-12-17T16:21:12,42.805,6.029,CST-1368DR,5041,6470,13723,0.517,551
2021-12-17T16:24:14,42.805,6.029,CST-1368DR,5041,6469,13720,0.518,551
2021-12-17T16:27:15,42.805,6.029,CST-1368DR,5041,6456,13692,0.526,551
2021-12-17T16:30:17,42.805,6.029,CST-1368DR,5041,6465,13711,0.520,551
2021-12-17T16:33:18,42.805,6.029,CST-1368DR,5041,6465,13712,0.520,551
2021-12-17T16:36:20,42.805,6.029,CST-1368DR,5041,6465,13712,0.520,551
2021-12-17T16:39:21,42.805,6.029,CST-1368DR,5041,6481,13747,0.510,551
2021-12-17T16:42:23,42.805,6.029,CST-1368DR,5041,6461,13704,0.522,551
2021-12-17T16:45:25,42.805,6.029,CST-1368DR,5041,6468,13719,0.518,551
2021-12-17T16:48:26,42.805,6.029,CST-1368DR,5041,6454,13689,0.527,551
2021-12-17T16:51:28,42.805,6.029,CST-1368DR,5041,6470,13723,0.517,550